• In Switzerland
  • List of Countries
  • For 7 days
  • Water Temperature
  • Satellite Maps
  • Weather Map
  • Weather Widgets
  • user-avatar
    Login

    Hourly Weather Thimphu

    Today, 15 August, Wednesday

    Time Temperature Precipitation Wind Pressure Humidity
    00:00 +13°C° 0 mm 1 mps 525 mmHg 92%
    01:00 +13°C° 0.4 mm 1 mps 525 mmHg 91%
    02:00 +13°C° 0.4 mm 1 mps 525 mmHg 89%
    03:00 +12°C° 0.4 mm 0 mps 525 mmHg 88%
    04:00 +13°C° 0.2 mm 1 mps 525 mmHg 88%
    05:00 +13°C° 0.2 mm 1 mps 525 mmHg 87%
    06:00 +13°C° 0 mm 1 mps 526 mmHg 88%
    07:00 +15°C° 0.2 mm 1 mps 527 mmHg 81%
    08:00 +18°C° 0.2 mm 1 mps 528 mmHg 73%
    09:00 +19°C° 0.2 mm 1 mps 529 mmHg 66%
    10:00 +19°C° 0.2 mm 2 mps 529 mmHg 64%
    11:00 +20°C° 0.2 mm 2 mps 529 mmHg 61%
    12:00 +20°C° 0 mm 2 mps 530 mmHg 61%
    13:00 +20°C° 0.4 mm 2 mps 529 mmHg 63%
    14:00 +20°C° 0.4 mm 2 mps 529 mmHg 65%
    15:00 +19°C° 0.4 mm 2 mps 528 mmHg 68%
    16:00 +18°C° 0.4 mm 2 mps 527 mmHg 73%
    17:00 +17°C° 0.4 mm 2 mps 527 mmHg 79%
    18:00 +15°C° 0 mm 1 mps 526 mmHg 86%
    19:00 +15°C° 0.4 mm 1 mps 526 mmHg 88%
    20:00 +14°C° 0.4 mm 1 mps 526 mmHg 90%
    21:00 +13°C° 0.4 mm 1 mps 526 mmHg 93%
    22:00 +13°C° 0.3 mm 1 mps 526 mmHg 92%
    23:00 +13°C° 0.3 mm 1 mps 526 mmHg 91%

    Tomorrow, 16 August, Thursday

    Time Temperature Precipitation Wind Pressure Humidity
    00:00 +13°C° 0.3 mm 1 mps 526 mmHg 89%
    01:00 +13°C° 0.3 mm 1 mps 526 mmHg 89%
    02:00 +13°C° 0.3 mm 1 mps 526 mmHg 89%
    03:00 +12°C° 0.3 mm 0 mps 525 mmHg 89%
    04:00 +12°C° 0.1 mm 0 mps 526 mmHg 89%
    05:00 +12°C° 0.1 mm 0 mps 526 mmHg 88%
    06:00 +11°C° 0.1 mm 0 mps 526 mmHg 87%
    07:00 +14°C° 0.1 mm 1 mps 527 mmHg 80%
    08:00 +16°C° 0.1 mm 1 mps 528 mmHg 74%
    09:00 +19°C° 0.1 mm 1 mps 529 mmHg 67%
    10:00 +19°C° 0.2 mm 2 mps 530 mmHg 64%
    11:00 +20°C° 0.2 mm 2 mps 530 mmHg 62%
    12:00 +21°C° 0.2 mm 2 mps 530 mmHg 59%
    13:00 +21°C° 0.3 mm 2 mps 529 mmHg 61%
    14:00 +20°C° 0.3 mm 2 mps 528 mmHg 63%
    15:00 +20°C° 0.3 mm 2 mps 528 mmHg 65%
    16:00 +19°C° 0.2 mm 2 mps 527 mmHg 71%
    17:00 +18°C° 0.2 mm 2 mps 526 mmHg 77%
    18:00 +18°C° 0.2 mm 1 mps 525 mmHg 83%
    19:00 +16°C° 0.3 mm 1 mps 525 mmHg 86%
    20:00 +15°C° 0.3 mm 1 mps 525 mmHg 90%
    21:00 +13°C° 0.3 mm 0 mps 525 mmHg 94%
    22:00 +13°C° 0.4 mm 0 mps 525 mmHg 93%
    23:00 +13°C° 0.4 mm 0 mps 525 mmHg 92%

    Day after tomorrow, 17 August, Friday

    Time Temperature Precipitation Wind Pressure Humidity
    00:00 +12°C° 0.4 mm 0 mps 525 mmHg 91%
    01:00 +12°C° 0.2 mm 0 mps 525 mmHg 91%
    02:00 +12°C° 0.2 mm 0 mps 525 mmHg 92%
    03:00 +12°C° 0.2 mm 0 mps 524 mmHg 92%
    04:00 +12°C° 0.3 mm 0 mps 524 mmHg 91%
    05:00 +13°C° 0.3 mm 1 mps 524 mmHg 90%
    06:00 +13°C° 0.3 mm 1 mps 524 mmHg 89%
    07:00 +15°C° 0.2 mm 1 mps 526 mmHg 80%
    08:00 +18°C° 0.2 mm 1 mps 527 mmHg 71%
    09:00 +20°C° 0.2 mm 1 mps 528 mmHg 62%
    10:00 +20°C° 0.2 mm 2 mps 528 mmHg 61%
    11:00 +21°C° 0.2 mm 2 mps 528 mmHg 60%
    12:00 +21°C° 0.2 mm 3 mps 528 mmHg 59%
    13:00 +21°C° 0.3 mm 3 mps 528 mmHg 62%
    14:00 +20°C° 0.3 mm 2 mps 527 mmHg 65%
    15:00 +20°C° 0.3 mm 2 mps 526 mmHg 68%
    16:00 +19°C° 0.1 mm 2 mps 525 mmHg 74%
    17:00 +18°C° 0.1 mm 2 mps 525 mmHg 80%
    18:00 +16°C° 0.1 mm 1 mps 524 mmHg 86%
    19:00 +16°C° 0.1 mm 1 mps 524 mmHg 89%
    20:00 +15°C° 0.1 mm 1 mps 524 mmHg 92%
    21:00 +13°C° 0.1 mm 0 mps 524 mmHg 94%
    22:00 +13°C° 0.3 mm 0 mps 524 mmHg 94%
    23:00 +13°C° 0.3 mm 0 mps 524 mmHg 93%

    18 August, Saturday

    Time Temperature Precipitation Wind Pressure Humidity
    00:00 +13°C° 0.3 mm 0 mps 524 mmHg 92%
    01:00 +13°C° 0.6 mm 0 mps 524 mmHg 91%
    02:00 +12°C° 0.6 mm 0 mps 524 mmHg 90%
    03:00 +12°C° 0.6 mm 0 mps 523 mmHg 90%
    04:00 +12°C° 0.4 mm 0 mps 523 mmHg 89%
    05:00 +13°C° 0.4 mm 1 mps 523 mmHg 88%
    06:00 +13°C° 0.4 mm 1 mps 523 mmHg 88%
    07:00 +15°C° 0.3 mm 1 mps 525 mmHg 80%
    08:00 +18°C° 0.3 mm 1 mps 526 mmHg 72%
    09:00 +20°C° 0.3 mm 1 mps 528 mmHg 64%
    10:00 +20°C° 0.2 mm 2 mps 528 mmHg 62%
    11:00 +21°C° 0.2 mm 2 mps 528 mmHg 60%
    12:00 +22°C° 0.2 mm 3 mps 528 mmHg 58%
    13:00 +21°C° 0.6 mm 3 mps 527 mmHg 62%
    14:00 +20°C° 0.6 mm 2 mps 526 mmHg 66%
    15:00 +20°C° 0.6 mm 2 mps 525 mmHg 70%
    16:00 +19°C° 0.4 mm 2 mps 524 mmHg 76%
    17:00 +17°C° 0.4 mm 2 mps 524 mmHg 81%
    18:00 +16°C° 0.4 mm 1 mps 523 mmHg 87%
    19:00 +16°C° 0.3 mm 1 mps 523 mmHg 89%
    20:00 +15°C° 0.3 mm 1 mps 523 mmHg 92%
    21:00 +14°C° 0.3 mm 1 mps 524 mmHg 94%
    22:00 +14°C° 0.4 mm 1 mps 524 mmHg 94%
    23:00 +14°C° 0.4 mm 1 mps 524 mmHg 93%

    19 August, Sunday

    Time Temperature Precipitation Wind Pressure Humidity
    00:00 +14°C° 0.4 mm 1 mps 524 mmHg 92%
    01:00 +13°C° 0.4 mm 1 mps 523 mmHg 92%
    02:00 +13°C° 0.4 mm 1 mps 523 mmHg 92%
    03:00 +13°C° 0.4 mm 1 mps 523 mmHg 91%
    04:00 +13°C° 0.1 mm 1 mps 523 mmHg 90%
    05:00 +13°C° 0.1 mm 1 mps 523 mmHg 89%
    06:00 +13°C° 0.1 mm 1 mps 523 mmHg 88%
    07:00 +15°C° 0 mm 1 mps 525 mmHg 80%
    08:00 +18°C° 0 mm 1 mps 526 mmHg 71%
    09:00 +20°C° 0 mm 1 mps 527 mmHg 63%
    10:00 +20°C° 0.2 mm 2 mps 527 mmHg 62%
    11:00 +20°C° 0.2 mm 2 mps 527 mmHg 61%
    12:00 +21°C° 0.2 mm 3 mps 527 mmHg 60%
    13:00 +20°C° 0.4 mm 3 mps 526 mmHg 65%
    14:00 +19°C° 0.4 mm 3 mps 525 mmHg 69%
    15:00 +19°C° 0.4 mm 3 mps 524 mmHg 73%
    16:00 +18°C° 0.3 mm 2 mps 524 mmHg 78%
    17:00 +16°C° 0.3 mm 2 mps 524 mmHg 83%
    18:00 +15°C° 0.3 mm 1 mps 523 mmHg 88%
    19:00 +15°C° 0.2 mm 1 mps 524 mmHg 90%
    20:00 +14°C° 0.2 mm 1 mps 524 mmHg 91%
    21:00 +14°C° 0.2 mm 1 mps 524 mmHg 92%
    22:00 +14°C° 0.2 mm 1 mps 524 mmHg 92%
    23:00 +13°C° 0.2 mm 1 mps 524 mmHg 92%

    20 August, Monday

    Time Temperature Precipitation Wind Pressure Humidity
    00:00 +13°C° 0.2 mm 1 mps 524 mmHg 92%
    01:00 +13°C° 0.2 mm 1 mps 524 mmHg 91%
    02:00 +13°C° 0.2 mm 1 mps 524 mmHg 90%
    03:00 +13°C° 0.2 mm 1 mps 523 mmHg 89%
    04:00 +13°C° 0.3 mm 1 mps 524 mmHg 89%
    05:00 +13°C° 0.3 mm 1 mps 524 mmHg 88%
    06:00 +13°C° 0.3 mm 1 mps 524 mmHg 88%
    07:00 +14°C° 0.2 mm 1 mps 526 mmHg 81%
    08:00 +16°C° 0.2 mm 1 mps 527 mmHg 73%
    09:00 +19°C° 0.2 mm 1 mps 528 mmHg 66%
    10:00 +19°C° 0.2 mm 2 mps 529 mmHg 63%
    11:00 +20°C° 0.2 mm 2 mps 529 mmHg 60%
    12:00 +21°C° 0.2 mm 2 mps 529 mmHg 57%
    13:00 +20°C° 0.6 mm 2 mps 528 mmHg 61%
    14:00 +19°C° 0.6 mm 2 mps 528 mmHg 66%
    15:00 +19°C° 0.6 mm 2 mps 527 mmHg 70%
    16:00 +18°C° 0.4 mm 2 mps 526 mmHg 75%
    17:00 +17°C° 0.4 mm 2 mps 526 mmHg 80%
    18:00 +16°C° 0.4 mm 1 mps 525 mmHg 85%
    19:00 +15°C° 0.3 mm 1 mps 525 mmHg 87%
    20:00 +14°C° 0.3 mm 1 mps 525 mmHg 89%
    21:00 +14°C° 0.3 mm 1 mps 525 mmHg 91%
    22:00 +13°C° 0.2 mm 1 mps 525 mmHg 91%
    23:00 +13°C° 0.2 mm 1 mps 525 mmHg 90%
    Show more